Regional Weather Roundup
Issued by NWS Cleveland, OH

Home | Current Version | Previous Version | Graphics & Text | Print | Product List | Glossary On
Versions: 1 2 3 4 5 6 7 8 9 10 11 12 13 14 15 16 17 18 19 20 21 22 23 24 25 26 27 28 29 30 31 32 33 34 35 36 37 38 39 40 41 42 43 44 45 46 47 48 49 50
455
ASUS41 KCLE 140410
RWRCLE
OHIO REGIONAL WEATHER ROUNDUP
NATIONAL WEATHER SERVICE WILMINGTON, OH
1100 PM EST SAT FEB 13 2016

NOTE: "FAIR" INDICATES FEW OR NO CLOUDS BELOW 12,000 FEET WITH NO
SIGNIFICANT WEATHER AND/OR OBSTRUCTIONS TO VISIBILITY.

OHZ001>008-015>018-024>027-034-035-043-044-140500-
   NORTHWEST OHIO

CITY           SKY/WX    TMP DP  RH WIND       PRES   REMARKS
DEFIANCE       CLOUDY    14   4  64 NW3       30.49S
FINDLAY        FAIR      10   4  76 W6        30.46S WCI   0
TOLEDO EXPRESS FLURRIES  13   5  70 NW6       30.47R WCI   4
TOLEDO EXEC    CLOUDY    15   3  59 N6        30.48S WCI   6
LIMA           FAIR       9   2  73 W7        30.46S WCI  -2
$$

OHZ009>014-019>023-028>033-038-089-140500-
   NORTHEAST OHIO

CITY           SKY/WX    TMP DP  RH WIND       PRES   REMARKS
CLE-HOPKINS    MOCLDY    10   5  80 SW3       30.47F
CLE-LAKEFRONT  CLOUDY    15   3  59 NW12      30.45S WCI   2
CUY CO. ARPT   CLOUDY    14   3  62 N12       30.44S WCI   0
LORAIN-ELYRIA  LGT SNOW  10   6  84 CALM      30.45S FOG
ASHTABULA      FAIR       9  -5  53 NW13G22   30.41F WCI  -7
AKRON-CANTON   FLURRIES   4   0  83 W5        30.40F WCI  -5
WOOSTER        LGT SNOW   4   0  83 CALM      30.42F FOG
MANSFIELD      CLOUDY    10   7  87 W5        30.40S WCI   2
YOUNGSTOWN     LGT SNOW   7   3  84 CALM      30.40S FOG
$$

OHZ042-051>053-060>062-070>072-077>081-140500-
  SOUTHWEST OHIO

CITY           SKY/WX    TMP DP  RH WIND       PRES   REMARKS
CINC-COVINGTON FAIR      12   3  67 CALM      30.47F
CINC-LUNKEN    FAIR      10   6  84 NE3       30.53F
HAMILTON       FAIR       9   5  84 NE3       30.51F
DAYTON         FAIR       8  -1  66 NW6       30.47S WCI  -2
WRIGHT-PAT AFB PTCLDY     4   0  81 S1        30.48S
DAYTON GENERAL FAIR       9  -1  64 CALM      30.47S
WILMINGTON     FAIR       1  -4  79 CALM      30.46F
$$

OHZ036-037-039>041-045>050-054>059-063>069-073>076-082>088-140500-
  CENTRAL AND SOUTHEAST OHIO

CITY           SKY/WX    TMP DP  RH WIND       PRES   REMARKS
COLUMBUS       FAIR       9  -2  61 W7        30.47F WCI  -2
OSU AIRPORT    FAIR       5  -2  72 W5        30.46F WCI  -4
BOLTON FIELD   FAIR       6  -1  71 W3        30.47F
RICKENBACK AFB FAIR       4  -1  77 CALM      30.48F
NEWARK         FAIR       4  -1  80 W5        30.45F WCI  -5
MARION         CLOUDY    12   4  70 W7        30.45S WCI   1
LANCASTER      FAIR      -2  -7  79 CALM      30.47F
ZANESVILLE     CLOUDY    10   2  69 SW5       30.45F WCI   2
NEW PHILLY     CLOUDY     5  32 100 CALM      30.45F
$$




USA.gov is the U.S. government's official web portal to all federal, state and local government web resources and services.